| time (UTC) | temp F | wind direction | speed MPH | gust MPH | rain 1hr in | rain 24hr in | rain mn in | humidity % | barometer mb |
| 20260503223520 | 59 | 22 | 4.0 | 8.0 | 0.00 | 0.00 | 0.00 | 20 | 1016.2 |
| 20260503222521 | 59 | 332 | 3.0 | 6.0 | 0.00 | 0.00 | 0.00 | 21 | 1016.3 |
| 20260503221521 | 59 | 2 | 4.0 | 9.0 | 0.00 | 0.00 | 0.00 | 20 | 1016.4 |
| 20260503220542 | 59 | 49 | 5.0 | 9.0 | 0.00 | 0.00 | 0.00 | 19 | 1016.6 |
| 20260503215522 | 59 | 1 | 4.0 | 8.0 | 0.00 | 0.00 | 0.00 | 19 | 1016.7 |
| 20260503214522 | 60 | 324 | 4.0 | 10.0 | 0.00 | 0.00 | 0.00 | 20 | 1016.8 |
| 20260503213539 | 60 | 311 | 5.0 | 12.0 | 0.00 | 0.00 | 0.00 | 20 | 1017.0 |
| 20260503212522 | 60 | 18 | 6.0 | 10.0 | 0.00 | 0.00 | 0.00 | 18 | 1017.1 |
| 20260503211519 | 61 | 295 | 5.0 | 11.0 | 0.00 | 0.00 | 0.00 | 17 | 1017.3 |
| 20260503210516 | 62 | 20 | 7.0 | 12.0 | 0.00 | 0.00 | 0.00 | 17 | 1017.5 |
| 20260503205522 | 61 | 344 | 4.0 | 8.0 | 0.00 | 0.00 | 0.00 | 18 | 1017.7 |
| 20260503204523 | 60 | 11 | 2.0 | 7.0 | 0.00 | 0.00 | 0.00 | 18 | 1017.9 |
| 20260503203519 | 61 | 357 | 8.0 | 14.0 | 0.00 | 0.00 | 0.00 | 18 | 1018.1 |
| 20260503202523 | 60 | 0 | 6.0 | 10.0 | 0.00 | 0.00 | 0.00 | 19 | 1018.3 |
| 20260503201523 | 59 | 342 | 4.0 | 9.0 | 0.00 | 0.00 | 0.00 | 20 | 1018.5 |
| 20260503200517 | 59 | 9 | 7.0 | 11.0 | 0.00 | 0.00 | 0.00 | 21 | 1018.6 |
| 20260503195517 | 59 | 314 | 6.0 | 13.0 | 0.00 | 0.00 | 0.00 | 20 | 1018.8 |
| 20260503194517 | 60 | 320 | 5.0 | 9.0 | 0.00 | 0.00 | 0.00 | 18 | 1018.8 |
| 20260503193518 | 59 | 355 | 5.0 | 9.0 | 0.00 | 0.00 | 0.00 | 19 | 1018.9 |
| 20260503192524 | 59 | 316 | 5.0 | 10.0 | 0.00 | 0.00 | 0.00 | 18 | 1019.1 |
| 20260503191539 | 59 | 298 | 4.0 | 9.0 | 0.00 | 0.00 | 0.00 | 18 | 1019.2 |
| 20260503190518 | 58 | 205 | 6.0 | 9.0 | 0.00 | 0.00 | 0.00 | 20 | 1019.4 |
| 20260503185518 | 58 | 272 | 9.0 | 16.0 | 0.00 | 0.00 | 0.00 | 20 | 1019.5 |
| 20260503184518 | 57 | 289 | 7.0 | 14.0 | 0.00 | 0.00 | 0.00 | 21 | 1019.8 |
| 20260503183520 | 57 | 297 | 5.0 | 9.0 | 0.00 | 0.00 | 0.00 | 22 | 1020.0 |
| 20260503182519 | 57 | 278 | 6.0 | 13.0 | 0.00 | 0.00 | 0.00 | 23 | 1020.1 |
| 20260503181539 | 56 | 41 | 3.0 | 7.0 | 0.00 | 0.00 | 0.00 | 23 | 1020.4 |
| 20260503180519 | 56 | 32 | 5.0 | 9.0 | 0.00 | 0.00 | 0.00 | 23 | 1020.5 |
| 20260503175519 | 56 | 341 | 4.0 | 8.0 | 0.00 | 0.00 | 0.00 | 24 | 1020.6 |
| 20260503174528 | 55 | 327 | 2.0 | 5.0 | 0.00 | 0.00 | 0.00 | 24 | 1020.7 |
| 20260503173520 | 55 | 298 | 4.0 | 8.0 | 0.00 | 0.00 | 0.00 | 24 | 1020.8 |
| 20260503172528 | 54 | 335 | 2.0 | 4.0 | 0.00 | 0.00 | 0.00 | 24 | 1021.0 |
| 20260503171529 | 54 | 10 | 2.0 | 4.0 | 0.00 | 0.00 | 0.00 | 25 | 1021.0 |
| 20260503170520 | 54 | 52 | 3.0 | 7.0 | 0.00 | 0.00 | 0.00 | 25 | 1021.0 |
| 20260503150522 | 51 | 148 | 4.0 | 7.0 | 0.00 | 0.00 | 0.00 | 34 | 1022.0 |
| 20260503130517 | 40 | 86 | 4.0 | 6.0 | 0.00 | 0.00 | 0.00 | 48 | 1021.9 |
| 20260503110519 | 37 | 138 | 6.0 | 9.0 | 0.00 | 0.00 | 0.00 | 50 | 1021.5 |
| 20260503081518 | 38 | 149 | 8.0 | 10.0 | 0.00 | 0.00 | 0.00 | 49 | 1021.7 |
| 20260503080518 | 38 | 147 | 7.0 | 9.0 | 0.00 | 0.00 | 0.00 | 49 | 1021.7 |
| 20260503072519 | 38 | 147 | 6.0 | 8.0 | 0.00 | 0.00 | 0.00 | 49 | 1022.0 |
| 20260503071519 | 38 | 149 | 6.0 | 8.0 | 0.00 | 0.00 | 0.00 | 53 | 1022.1 |
| 20260503070539 | 38 | 161 | 6.0 | 8.0 | 0.00 | 0.00 | 0.00 | 50 | 1022.1 |
| 20260503054521 | 38 | 157 | 8.0 | 10.0 | 0.00 | 0.00 | 0.00 | 58 | 1022.1 |
| 20260503053521 | 38 | 153 | 7.0 | 9.0 | 0.00 | 0.00 | 0.00 | 60 | 1022.1 |
| 20260503052521 | 38 | 156 | 7.0 | 9.0 | 0.00 | 0.00 | 0.00 | 59 | 1022.2 |
| 20260503051521 | 38 | 157 | 7.0 | 8.0 | 0.00 | 0.00 | 0.00 | 58 | 1022.1 |
| 20260503050521 | 39 | 158 | 6.0 | 7.0 | 0.00 | 0.00 | 0.00 | 57 | 1022.2 |
| 20260503045522 | 39 | 164 | 6.0 | 8.0 | 0.00 | 0.00 | 0.00 | 56 | 1022.2 |
| 20260503044522 | 38 | 164 | 6.0 | 9.0 | 0.00 | 0.00 | 0.00 | 57 | 1022.3 |
| 20260503043522 | 39 | 183 | 6.0 | 9.0 | 0.00 | 0.00 | 0.00 | 56 | 1022.3 |
| 20260503042522 | 40 | 167 | 7.0 | 9.0 | 0.00 | 0.00 | 0.00 | 54 | 1022.3 |
| 20260503041539 | 40 | 186 | 7.0 | 11.0 | 0.00 | 0.00 | 0.00 | 52 | 1022.3 |
| 20260503040522 | 39 | 191 | 7.0 | 9.0 | 0.00 | 0.00 | 0.00 | 54 | 1022.4 |
| 20260503035517 | 40 | 185 | 4.0 | 6.0 | 0.00 | 0.00 | 0.00 | 56 | 1022.4 |
| 20260503034517 | 41 | 152 | 6.0 | 8.0 | 0.00 | 0.00 | 0.00 | 51 | 1022.2 |
| 20260503033517 | 40 | 169 | 7.0 | 9.0 | 0.00 | 0.00 | 0.00 | 50 | 1022.4 |
| 20260503032604 | 40 | 153 | 7.0 | 8.0 | 0.00 | 0.00 | 0.00 | 50 | 1022.3 |
| 20260503031521 | 39 | 156 | 7.0 | 10.0 | 0.00 | 0.00 | 0.00 | 52 | 1022.4 |
| 20260503030517 | 40 | 156 | 6.0 | 8.0 | 0.00 | 0.00 | 0.00 | 49 | 1022.2 |
| 20260503025518 | 40 | 155 | 7.0 | 9.0 | 0.00 | 0.00 | 0.00 | 49 | 1022.1 |
| 20260503024518 | 40 | 157 | 6.0 | 7.0 | 0.00 | 0.00 | 0.00 | 49 | 1022.0 |
| 20260503023518 | 40 | 160 | 5.0 | 7.0 | 0.00 | 0.00 | 0.00 | 52 | 1021.9 |
| 20260503022519 | 41 | 161 | 5.0 | 6.0 | 0.00 | 0.00 | 0.00 | 52 | 1021.8 |
| 20260503021519 | 43 | 173 | 5.0 | 6.0 | 0.00 | 0.00 | 0.00 | 47 | 1021.7 |
| 20260503020519 | 44 | 167 | 5.0 | 6.0 | 0.00 | 0.00 | 0.00 | 46 | 1021.6 |
| 20260503015519 | 47 | 172 | 4.0 | 6.0 | 0.00 | 0.00 | 0.00 | 42 | 1021.4 |
| 20260503014530 | 50 | 189 | 4.0 | 4.0 | 0.00 | 0.00 | 0.00 | 37 | 1021.4 |
| 20260503013530 | 53 | 191 | 2.0 | 3.0 | 0.00 | 0.00 | 0.00 | 30 | 1021.3 |
| 20260503012530 | 54 | 169 | 3.0 | 3.0 | 0.00 | 0.00 | 0.00 | 25 | 1021.3 |
| 20260503011530 | 55 | 206 | 4.0 | 5.0 | 0.00 | 0.00 | 0.00 | 25 | 1021.2 |
| 20260503010517 | 56 | 251 | 3.0 | 4.0 | 0.00 | 0.00 | 0.00 | 23 | 1021.2 |
| 20260503005517 | 56 | 6 | 2.0 | 3.0 | 0.00 | 0.00 | 0.00 | 20 | 1021.2 |
| 20260503004520 | 56 | 190 | 3.0 | 5.0 | 0.00 | 0.00 | 0.00 | 23 | 1021.3 |
| 20260503003520 | 56 | 242 | 5.0 | 10.0 | 0.00 | 0.00 | 0.00 | 23 | 1021.3 |
| 20260503002521 | 56 | 225 | 4.0 | 7.0 | 0.00 | 0.00 | 0.00 | 23 | 1021.3 |
| 20260503001518 | 57 | 157 | 3.0 | 5.0 | 0.00 | 0.00 | 0.00 | 22 | 1021.3 |
| 20260503000518 | 57 | 48 | 2.0 | 4.0 | 0.00 | 0.00 | 0.00 | 21 | 1021.4 |
| 20260502235541 | 57 | 12 | 4.0 | 6.0 | 0.00 | 0.00 | 0.00 | 21 | 1021.5 |
| 20260502234521 | 57 | 359 | 3.0 | 6.0 | 0.00 | 0.00 | 0.00 | 20 | 1021.6 |
| 20260502233519 | 56 | 108 | 2.0 | 4.0 | 0.00 | 0.00 | 0.00 | 20 | 1021.6 |
| 20260502232522 | 55 | 175 | 5.0 | 8.0 | 0.00 | 0.00 | 0.00 | 23 | 1021.6 |
| 20260502231522 | 56 | 175 | 5.0 | 8.0 | 0.00 | 0.00 | 0.00 | 24 | 1021.6 |
| 20260502230522 | 56 | 230 | 5.0 | 9.0 | 0.00 | 0.00 | 0.00 | 24 | 1021.7 |
| 20260502225522 | 55 | 154 | 6.0 | 9.0 | 0.00 | 0.00 | 0.00 | 20 | 1021.8 |
| 20260502224523 | 55 | 182 | 5.0 | 9.0 | 0.00 | 0.00 | 0.00 | 21 | 1021.7 |